EXS49MT EGSS-LEIB

Flight info

Callsign EXS49MT
Flight time 2h 7m
Altitude 39000
Route NUGBO M183 SILVA Q41 COWLY T71 VAPID N859 DRAKE L151 SITET UN859 SOPIL DCT BALAN DCT EVPOK DCT NARAK DCT GAI DCT LOMRA DCT ROCAN DCT PUMAL N859 BCN Z174 CORDA
Aircraft B738/M-SDE2E3FGHIRWXY/LB1

Departure

Time 2026-05-04 07:35
Airport London Stansted Airport (EGSS)

Arrival

Time 2026-05-04 09:42
Airport Ibiza Airport (LEIB)
Time Latitude Longitude Altitude Speed Heading
2026-05-04 07:23 51.88947 0.25221 355 ft 0 kts 43°
2026-05-04 07:24 51.88947 0.25222 355 ft 0 kts 43°
2026-05-04 07:27 51.88936 0.25204 358 ft 4 kts 43°
2026-05-04 07:27 51.88920 0.25180 344 ft 4 kts 38°
2026-05-04 07:27 51.88898 0.25163 360 ft 4 kts 354°
2026-05-04 07:28 51.88878 0.25179 354 ft 4 kts 313°
2026-05-04 07:28 51.88867 0.25199 355 ft 0 kts 313°
2026-05-04 07:29 51.88881 0.25175 355 ft 14 kts 313°
2026-05-04 07:29 51.88966 0.25017 352 ft 20 kts 290°
2026-05-04 07:30 51.88900 0.24862 353 ft 23 kts 224°
2026-05-04 07:30 51.88747 0.24629 348 ft 41 kts 223°
2026-05-04 07:30 51.88579 0.24378 351 ft 31 kts 223°
2026-05-04 07:30 51.88424 0.24144 354 ft 30 kts 223°
2026-05-04 07:31 51.88280 0.23927 352 ft 28 kts 224°
2026-05-04 07:31 51.88149 0.23737 354 ft 20 kts 221°
2026-05-04 07:33 51.87452 0.22390 338 ft 34 kts 223°
2026-05-04 07:33 51.87428 0.22156 335 ft 8 kts 320°
2026-05-04 07:33 51.87478 0.22075 335 ft 16 kts 314°
2026-05-04 07:33 51.87577 0.22095 334 ft 0 kts 43°
2026-05-04 07:34 51.87616 0.22154 335 ft 38 kts 43°
2026-05-04 07:34 51.88048 0.22802 336 ft 129 kts 43°
2026-05-04 07:35 51.88876 0.24039 569 ft 188 kts 40°
2026-05-04 07:35 51.89881 0.25583 1512 ft 201 kts 44°
2026-05-04 07:35 51.90903 0.27159 2499 ft 206 kts 42°
2026-05-04 07:35 51.91963 0.28727 3215 ft 213 kts 39°
2026-05-04 07:36 51.93317 0.29838 3777 ft 225 kts 10°
2026-05-04 07:36 51.94880 0.29708 4529 ft 231 kts 341°
2026-05-04 07:38 51.98428 0.11255 10171 ft 281 kts 278°
2026-05-04 07:38 51.98769 0.08099 10719 ft 299 kts 278°
2026-05-04 07:38 51.98871 0.04590 10902 ft 325 kts 260°
2026-05-04 07:38 51.98374 0.00871 11120 ft 349 kts 256°
2026-05-04 07:39 51.97822 -0.03062 11604 ft 364 kts 256°
2026-05-04 07:39 51.97287 -0.07092 12432 ft 367 kts 257°
2026-05-04 07:39 51.96757 -0.11154 13275 ft 370 kts 257°
2026-05-04 07:39 51.96205 -0.15259 14054 ft 374 kts 253°
2026-05-04 07:40 51.95053 -0.19024 14729 ft 378 kts 230°
2026-05-04 07:40 51.93029 -0.21717 15507 ft 379 kts 210°
2026-05-04 07:40 51.90617 -0.23335 16226 ft 383 kts 198°
2026-05-04 07:40 51.88055 -0.24631 16902 ft 388 kts 198°
2026-05-04 07:41 51.85456 -0.25909 17576 ft 392 kts 198°
2026-05-04 07:41 51.82831 -0.27196 18277 ft 396 kts 198°
2026-05-04 07:41 51.80187 -0.28503 18900 ft 399 kts 198°
2026-05-04 07:41 51.77539 -0.29825 19634 ft 399 kts 198°
2026-05-04 07:42 51.74883 -0.31161 20275 ft 401 kts 198°
2026-05-04 07:42 51.72216 -0.32509 20870 ft 403 kts 199°
2026-05-04 07:42 51.69526 -0.33872 21454 ft 406 kts 199°
2026-05-04 07:42 51.66823 -0.35242 22055 ft 408 kts 199°
2026-05-04 07:43 51.64140 -0.36601 22615 ft 411 kts 199°
2026-05-04 07:43 51.61408 -0.37984 23150 ft 413 kts 199°
2026-05-04 07:43 51.58659 -0.39373 23678 ft 416 kts 199°
2026-05-04 07:43 51.55889 -0.40771 24149 ft 417 kts 199°
2026-05-04 07:44 51.53121 -0.42165 24670 ft 417 kts 199°
2026-05-04 07:44 51.50354 -0.43557 25160 ft 418 kts 199°
2026-05-04 07:44 51.47576 -0.44953 25609 ft 419 kts 199°
2026-05-04 07:44 51.44785 -0.46354 26036 ft 421 kts 199°
2026-05-04 07:45 51.41988 -0.47756 26459 ft 422 kts 199°
2026-05-04 07:45 51.39177 -0.49164 26874 ft 424 kts 199°
2026-05-04 07:45 51.36360 -0.50572 27284 ft 425 kts 199°
2026-05-04 07:45 51.33536 -0.51983 27681 ft 426 kts 198°
2026-05-04 07:46 51.30705 -0.53395 28080 ft 426 kts 198°
2026-05-04 07:46 51.27913 -0.54785 28540 ft 426 kts 198°
2026-05-04 07:46 51.25098 -0.56185 29118 ft 422 kts 198°
2026-05-04 07:46 51.22310 -0.57570 29797 ft 417 kts 198°
2026-05-04 07:47 51.19553 -0.58937 30355 ft 414 kts 198°
2026-05-04 07:47 51.16795 -0.60305 30649 ft 416 kts 198°
2026-05-04 07:47 51.14026 -0.61676 30858 ft 419 kts 198°
2026-05-04 07:49 50.94413 -0.71338 33068 ft 426 kts 198°
2026-05-04 07:49 50.91583 -0.72724 33376 ft 427 kts 198°
2026-05-04 07:49 50.88705 -0.73912 33643 ft 430 kts 188°
2026-05-04 07:50 50.85707 -0.73791 34003 ft 433 kts 173°
2026-05-04 07:50 50.82803 -0.72553 34405 ft 435 kts 160°
2026-05-04 07:50 50.80133 -0.70210 34592 ft 443 kts 149°
2026-05-04 07:50 50.77628 -0.67460 34760 ft 446 kts 148°
2026-05-04 07:51 50.75096 -0.64614 34981 ft 447 kts 148°
2026-05-04 07:51 50.72542 -0.61798 35258 ft 447 kts 148°
2026-05-04 07:51 50.69974 -0.59035 35514 ft 447 kts 149°
2026-05-04 07:51 50.67394 -0.56300 35730 ft 448 kts 149°
2026-05-04 07:52 50.64789 -0.53575 35953 ft 449 kts 149°
2026-05-04 07:52 50.62198 -0.50860 36305 ft 446 kts 149°
2026-05-04 07:52 50.59621 -0.48141 36602 ft 446 kts 149°
2026-05-04 07:52 50.57041 -0.45415 36764 ft 448 kts 149°
2026-05-04 07:53 50.54449 -0.42678 36939 ft 450 kts 148°
2026-05-04 07:54 50.36254 -0.23577 38630 ft 449 kts 148°
2026-05-04 07:55 50.33644 -0.20853 38739 ft 452 kts 148°
2026-05-04 07:55 50.31027 -0.18126 38870 ft 452 kts 148°
2026-05-04 07:55 50.28441 -0.15434 38991 ft 453 kts 148°
2026-05-04 07:55 50.25810 -0.12697 38990 ft 456 kts 148°
2026-05-04 07:56 50.20524 -0.07302 38996 ft 451 kts 152°
2026-05-04 07:56 50.14851 -0.03310 38999 ft 445 kts 159°
2026-05-04 07:57 50.09165 0.00416 38987 ft 441 kts 164°
2026-05-04 07:57 50.03298 0.02796 39004 ft 441 kts 169°
2026-05-04 07:58 49.97283 0.05038 39013 ft 448 kts 168°
2026-05-04 07:58 49.91204 0.07374 39009 ft 451 kts 168°
2026-05-04 07:59 49.85104 0.09757 39001 ft 453 kts 168°
2026-05-04 07:59 49.79039 0.12126 38998 ft 453 kts 168°
2026-05-04 08:00 49.72936 0.14501 38994 ft 451 kts 168°
2026-05-04 08:02 49.48841 0.24174 39003 ft 445 kts 168°
2026-05-04 08:02 49.42870 0.26578 38989 ft 443 kts 168°
2026-05-04 08:03 49.36922 0.28967 38993 ft 441 kts 168°
2026-05-04 08:03 49.31030 0.31327 38994 ft 440 kts 168°
2026-05-04 08:04 49.25132 0.33777 38991 ft 439 kts 167°
2026-05-04 08:04 49.19251 0.36269 38995 ft 438 kts 167°
2026-05-04 08:05 49.13375 0.38744 38991 ft 438 kts 167°
2026-05-04 08:05 49.07493 0.41207 38984 ft 438 kts 167°
2026-05-04 08:06 49.01648 0.43645 38998 ft 439 kts 167°
2026-05-04 08:06 48.95754 0.46098 38992 ft 440 kts 168°
2026-05-04 08:08 48.71958 0.55822 38981 ft 446 kts 168°
2026-05-04 08:11 48.45019 0.66396 38972 ft 442 kts 168°
2026-05-04 08:11 48.36134 0.70022 38969 ft 440 kts 168°
2026-05-04 08:12 48.30230 0.72411 38971 ft 439 kts 168°
2026-05-04 08:12 48.24384 0.74766 38973 ft 438 kts 168°
2026-05-04 08:13 48.18507 0.77089 38968 ft 436 kts 168°
2026-05-04 08:13 48.12641 0.79389 38965 ft 435 kts 168°
2026-05-04 08:14 48.06785 0.81685 38971 ft 435 kts 168°
2026-05-04 08:16 47.83465 0.90790 38966 ft 434 kts 168°
2026-05-04 08:16 47.77620 0.93054 38972 ft 434 kts 168°
2026-05-04 08:17 47.71805 0.95300 38970 ft 435 kts 168°
2026-05-04 08:17 47.65932 0.97564 38968 ft 437 kts 168°
2026-05-04 08:19 47.42405 1.06296 38967 ft 434 kts 176°
2026-05-04 08:20 47.36414 1.06354 38962 ft 430 kts 184°
2026-05-04 08:20 47.30432 1.06143 38963 ft 430 kts 184°
2026-05-04 08:21 47.24495 1.05985 38965 ft 430 kts 183°
2026-05-04 08:21 47.18518 1.05851 38965 ft 429 kts 183°
2026-05-04 08:22 47.12540 1.05720 38963 ft 429 kts 183°
2026-05-04 08:24 46.88682 1.04904 38968 ft 430 kts 184°
2026-05-04 08:24 46.82700 1.04637 38968 ft 430 kts 184°
2026-05-04 08:25 46.76718 1.04378 38965 ft 430 kts 184°
2026-05-04 08:25 46.70764 1.04122 38970 ft 431 kts 184°
2026-05-04 08:27 46.46854 1.04765 38975 ft 435 kts 170°
2026-05-04 08:28 46.40962 1.06808 38961 ft 435 kts 170°
2026-05-04 08:28 46.35073 1.08817 38972 ft 435 kts 171°
2026-05-04 08:29 46.29175 1.10793 38957 ft 434 kts 171°
2026-05-04 08:31 46.05773 1.18546 38967 ft 430 kts 171°
2026-05-04 08:33 45.82482 1.26196 38959 ft 431 kts 171°
2026-05-04 08:35 45.59084 1.33817 38962 ft 433 kts 171°
2026-05-04 08:35 45.53212 1.35720 38963 ft 433 kts 171°
2026-05-04 08:37 45.32691 1.42336 38964 ft 433 kts 171°
2026-05-04 08:38 45.26824 1.44220 38964 ft 432 kts 171°
2026-05-04 08:38 45.21013 1.46082 38966 ft 431 kts 171°
2026-05-04 08:40 44.97720 1.53506 38946 ft 429 kts 172°
2026-05-04 08:41 44.91904 1.55350 38967 ft 428 kts 172°
2026-05-04 08:41 44.86088 1.57189 38974 ft 429 kts 172°
2026-05-04 08:42 44.80264 1.59028 38964 ft 429 kts 172°
2026-05-04 08:42 44.74431 1.60865 38963 ft 430 kts 172°
2026-05-04 08:43 44.68632 1.62689 38969 ft 430 kts 172°
2026-05-04 08:43 44.62796 1.64521 38969 ft 430 kts 172°
2026-05-04 08:44 44.56954 1.66351 38968 ft 430 kts 172°
2026-05-04 08:46 44.33724 1.73590 38962 ft 426 kts 172°
2026-05-04 08:46 44.27933 1.75312 38968 ft 424 kts 175°
2026-05-04 08:47 44.22115 1.76605 38975 ft 423 kts 176°
2026-05-04 08:47 44.16324 1.77823 38968 ft 424 kts 176°
2026-05-04 08:48 44.10493 1.79088 38964 ft 424 kts 176°
2026-05-04 08:48 44.04666 1.80368 38974 ft 423 kts 176°
2026-05-04 08:49 43.98853 1.81644 38960 ft 423 kts 176°
2026-05-04 08:50 43.78465 1.84060 38960 ft 422 kts 180°
2026-05-04 08:51 43.72621 1.84614 38970 ft 421 kts 180°
2026-05-04 08:51 43.66817 1.85176 38971 ft 421 kts 180°
2026-05-04 08:52 43.60968 1.85744 38948 ft 421 kts 180°
2026-05-04 08:52 43.55131 1.86308 38980 ft 420 kts 180°
2026-05-04 08:54 43.31711 1.88558 38961 ft 422 kts 180°
2026-05-04 08:55 43.25851 1.89122 38966 ft 422 kts 180°
2026-05-04 08:55 43.20027 1.89681 38958 ft 423 kts 181°
2026-05-04 09:01 42.59645 1.96168 38984 ft 424 kts 178°
2026-05-04 09:01 42.53813 1.97383 38979 ft 424 kts 178°
2026-05-04 09:02 42.47012 1.98751 38964 ft 426 kts 178°
2026-05-04 09:02 42.41139 1.99918 38980 ft 427 kts 178°
2026-05-04 09:03 42.36261 2.00864 38962 ft 424 kts 181°
2026-05-04 09:03 42.30400 2.01474 38961 ft 422 kts 182°
2026-05-04 09:04 42.24534 2.01998 38981 ft 422 kts 182°
2026-05-04 09:04 42.18679 2.02540 38975 ft 421 kts 182°
2026-05-04 09:05 42.12880 2.03092 38979 ft 420 kts 183°
2026-05-04 09:05 42.07049 2.03650 38979 ft 420 kts 183°
2026-05-04 09:06 42.01223 2.04208 38984 ft 420 kts 183°
2026-05-04 09:08 41.77964 2.06422 38977 ft 420 kts 183°
2026-05-04 09:08 41.72134 2.06975 38967 ft 419 kts 184°
2026-05-04 09:09 41.66355 2.07520 38968 ft 419 kts 184°
2026-05-04 09:09 41.60530 2.08057 38969 ft 419 kts 184°
2026-05-04 09:10 41.54709 2.08593 38963 ft 419 kts 184°
2026-05-04 09:10 41.48894 2.09130 38962 ft 418 kts 184°
2026-05-04 09:11 41.43131 2.09660 38972 ft 418 kts 184°
2026-05-04 09:11 41.37327 2.10194 38965 ft 418 kts 184°
2026-05-04 09:12 41.31529 2.10724 38944 ft 418 kts 184°
2026-05-04 09:14 41.08341 2.14550 38958 ft 421 kts 181°
2026-05-04 09:14 41.02531 2.15523 38976 ft 421 kts 181°
2026-05-04 09:15 40.96718 2.16491 38982 ft 421 kts 181°
2026-05-04 09:15 40.90944 2.17452 38983 ft 421 kts 181°
2026-05-04 09:17 40.64753 2.21791 38981 ft 423 kts 181°
2026-05-04 09:18 40.58905 2.22755 38988 ft 424 kts 181°
2026-05-04 09:18 40.53054 2.23719 38983 ft 424 kts 181°
2026-05-04 09:19 40.47208 2.24680 38986 ft 424 kts 181°
2026-05-04 09:19 40.41399 2.25638 38979 ft 424 kts 180°
2026-05-04 09:20 40.35550 2.27024 38992 ft 429 kts 176°
2026-05-04 09:20 40.29703 2.28616 38989 ft 429 kts 176°
2026-05-04 09:21 40.23856 2.30176 38982 ft 429 kts 177°
2026-05-04 09:21 40.18041 2.31687 38982 ft 429 kts 177°
2026-05-04 09:22 40.15098 2.32443 38685 ft 435 kts 177°
2026-05-04 09:22 40.12133 2.33202 38148 ft 432 kts 177°
2026-05-04 09:22 40.09187 2.33960 37497 ft 430 kts 177°
2026-05-04 09:22 40.06258 2.34715 36879 ft 428 kts 177°
2026-05-04 09:23 40.03340 2.35464 36268 ft 427 kts 177°
2026-05-04 09:23 40.00426 2.36210 35591 ft 426 kts 178°
2026-05-04 09:23 39.97516 2.36954 34906 ft 426 kts 178°
2026-05-04 09:23 39.94646 2.37687 34231 ft 427 kts 178°
2026-05-04 09:25 39.74212 2.42613 28561 ft 415 kts 188°
2026-05-04 09:25 39.71399 2.42241 27679 ft 409 kts 194°
2026-05-04 09:26 39.68587 2.41734 26808 ft 419 kts 194°
2026-05-04 09:26 39.65672 2.41229 26110 ft 429 kts 193°
2026-05-04 09:26 39.62667 2.40747 25328 ft 439 kts 192°
2026-05-04 09:26 39.59634 2.40260 24574 ft 437 kts 195°
2026-05-04 09:27 39.56811 2.39063 23847 ft 422 kts 211°
2026-05-04 09:27 39.54371 2.37029 22866 ft 415 kts 221°
2026-05-04 09:27 39.52324 2.34455 21976 ft 405 kts 232°
2026-05-04 09:27 39.50716 2.31518 21222 ft 396 kts 237°
2026-05-04 09:28 39.49226 2.28543 20545 ft 393 kts 238°
2026-05-04 09:28 39.47773 2.25603 19850 ft 392 kts 238°
2026-05-04 09:28 39.46299 2.22634 19157 ft 392 kts 238°
2026-05-04 09:28 39.44823 2.19682 18470 ft 389 kts 238°
2026-05-04 09:29 39.43352 2.16764 17723 ft 384 kts 238°
2026-05-04 09:29 39.41898 2.13896 16985 ft 378 kts 237°
2026-05-04 09:29 39.40465 2.11078 16312 ft 372 kts 237°
2026-05-04 09:29 39.39047 2.08296 15637 ft 368 kts 237°
2026-05-04 09:30 39.37645 2.05551 14980 ft 364 kts 237°
2026-05-04 09:30 39.36260 2.02840 14338 ft 360 kts 237°
2026-05-04 09:30 39.34901 2.00183 13682 ft 358 kts 237°
2026-05-04 09:30 39.33543 1.97529 13124 ft 345 kts 237°
2026-05-04 09:31 39.32273 1.95050 12959 ft 319 kts 237°
2026-05-04 09:31 39.31091 1.92745 12811 ft 297 kts 237°
2026-05-04 09:31 39.29986 1.90590 12686 ft 279 kts 237°
2026-05-04 09:31 39.28922 1.88518 12583 ft 277 kts 237°
2026-05-04 09:32 39.27834 1.86477 12470 ft 274 kts 230°
2026-05-04 09:32 39.26317 1.85116 12374 ft 265 kts 202°
2026-05-04 09:34 39.13259 1.83213 8250 ft 303 kts 188°
2026-05-04 09:34 39.11209 1.82955 7929 ft 288 kts 188°
2026-05-04 09:34 39.09269 1.82710 7692 ft 273 kts 188°
2026-05-04 09:34 39.07439 1.82418 7478 ft 264 kts 197°
2026-05-04 09:35 39.05917 1.81244 7263 ft 255 kts 229°
2026-05-04 09:35 39.04890 1.79400 6955 ft 254 kts 237°
2026-05-04 09:35 39.03971 1.77460 6636 ft 254 kts 239°
2026-05-04 09:35 39.03122 1.75466 6296 ft 255 kts 241°
2026-05-04 09:37 38.97451 1.61815 3970 ft 228 kts 241°
2026-05-04 09:37 38.96715 1.60046 3685 ft 221 kts 241°
2026-05-04 09:38 38.96011 1.58350 3396 ft 209 kts 241°
2026-05-04 09:38 38.95344 1.56746 3125 ft 198 kts 241°
2026-05-04 09:38 38.94712 1.55223 2881 ft 188 kts 240°
2026-05-04 09:38 38.94110 1.53775 2636 ft 180 kts 241°
2026-05-04 09:39 38.93541 1.52403 2416 ft 173 kts 240°
2026-05-04 09:39 38.92972 1.51034 2177 ft 174 kts 241°
2026-05-04 09:39 38.92413 1.49680 1961 ft 170 kts 240°
2026-05-04 09:39 38.91861 1.48358 1728 ft 166 kts 241°
2026-05-04 09:40 38.91335 1.47080 1502 ft 158 kts 240°
2026-05-04 09:40 38.90837 1.45885 1312 ft 142 kts 241°
2026-05-04 09:40 38.90390 1.44809 1127 ft 132 kts 241°
2026-05-04 09:40 38.89954 1.43755 959 ft 135 kts 240°
2026-05-04 09:41 38.89508 1.42675 773 ft 138 kts 241°
2026-05-04 09:42 38.87110 1.36876 6 ft 16 kts 260°
2026-05-04 09:43 38.87102 1.36735 5 ft 16 kts 269°
2026-05-04 09:43 38.87106 1.36605 6 ft 14 kts 279°
2026-05-04 09:43 38.87173 1.36593 7 ft 13 kts 56°
2026-05-04 09:43 38.87215 1.36695 7 ft 13 kts 63°
2026-05-04 09:44 38.87256 1.36795 7 ft 12 kts 62°
2026-05-04 09:44 38.87296 1.36893 7 ft 13 kts 62°
2026-05-04 09:44 38.87338 1.36994 8 ft 5 kts 62°
2026-05-04 09:46 38.87438 1.36958 7 ft 0 kts 332°